Time,TemperatureF,DewpointF,PressureIn,WindDirection,WindDirectionDegrees,WindSpeedMPH,WindSpeedGustMPH,Humidity,HourlyPrecipIn,Conditions,Clouds,dailyrainin,SolarRadiationWatts/m^2,SoftwareType,DateUTC
2013-03-08 00:00:00,36.2,24.8,30.12,North,32767,-999.0,0.0,63,0.00,,,0.00,0,Wunderground v.1.15,2013-03-08 05:00:00,
2013-03-08 00:05:00,36.2,24.8,30.12,North,32767,-999.0,0.0,63,0.00,,,0.00,0,Wunderground v.1.15,2013-03-08 05:05:00,
2013-03-08 00:10:00,35.9,24.5,30.12,North,32767,-999.0,0.0,63,0.00,,,0.00,0,Wunderground v.1.15,2013-03-08 05:10:00,
2013-03-08 00:15:00,35.9,24.5,30.12,North,32767,-999.0,0.0,63,0.00,,,0.00,0,Wunderground v.1.15,2013-03-08 05:15:00,
2013-03-08 00:20:00,35.9,24.5,30.12,North,32767,-999.0,0.0,63,0.00,,,0.00,0,Wunderground v.1.15,2013-03-08 05:20:00,
2013-03-08 00:25:00,35.8,24.4,30.12,North,32767,-999.0,0.0,63,0.00,,,0.00,0,Wunderground v.1.15,2013-03-08 05:25:00,
2013-03-08 00:30:00,35.8,24.4,30.12,North,32767,-999.0,0.0,63,0.00,,,0.00,0,Wunderground v.1.15,2013-03-08 05:30:00,
2013-03-08 00:35:00,35.8,24.4,30.12,North,32767,-999.0,0.0,63,0.00,,,0.00,0,Wunderground v.1.15,2013-03-08 05:35:00,
2013-03-08 00:45:00,35.8,24.4,30.12,North,32767,-999.0,0.0,63,0.00,,,0.00,0,Wunderground v.1.15,2013-03-08 05:45:00,
2013-03-08 00:50:00,35.6,24.2,30.12,North,32767,-999.0,0.0,63,0.00,,,0.00,0,Wunderground v.1.15,2013-03-08 05:50:00,
2013-03-08 01:00:00,35.3,24.3,30.12,North,32767,-999.0,0.0,64,0.00,,,0.00,0,Wunderground v.1.15,2013-03-08 06:00:00,
2013-03-08 01:10:00,34.9,24.3,30.12,North,32767,-999.0,0.0,65,0.00,,,0.00,0,Wunderground v.1.15,2013-03-08 06:10:00,
2013-03-08 01:15:00,34.7,24.1,30.12,North,32767,-999.0,0.0,65,0.00,,,0.00,0,Wunderground v.1.15,2013-03-08 06:15:00,
2013-03-08 01:25:00,34.1,24.3,30.12,North,32767,-999.0,0.0,67,0.00,,,0.00,0,Wunderground v.1.15,2013-03-08 06:25:00,
2013-03-08 01:35:00,34.0,24.2,30.13,North,32767,-999.0,0.0,67,0.00,,,0.00,0,Wunderground v.1.15,2013-03-08 06:35:00,
2013-03-08 01:40:00,34.1,24.3,30.13,North,32767,-999.0,0.0,67,0.00,,,0.00,0,Wunderground v.1.15,2013-03-08 06:40:00,
2013-03-08 01:45:00,34.3,24.1,30.13,North,32767,-999.0,0.0,66,0.00,,,0.00,0,Wunderground v.1.15,2013-03-08 06:45:00,
2013-03-08 01:50:00,34.3,24.1,30.12,North,32767,-999.0,0.0,66,0.00,,,0.00,0,Wunderground v.1.15,2013-03-08 06:50:00,
2013-03-08 02:00:00,34.1,23.9,30.12,North,32767,-999.0,0.0,66,0.00,,,0.00,0,Wunderground v.1.15,2013-03-08 07:00:00,
2013-03-08 02:05:00,34.0,24.2,30.12,North,32767,-999.0,0.0,67,0.00,,,0.00,0,Wunderground v.1.15,2013-03-08 07:05:00,
2013-03-08 02:15:00,34.0,24.2,30.12,North,32767,-999.0,0.0,67,0.00,,,0.00,0,Wunderground v.1.15,2013-03-08 07:15:00,
2013-03-08 02:20:00,34.0,23.8,30.11,North,32767,-999.0,0.0,66,0.00,,,0.00,0,Wunderground v.1.15,2013-03-08 07:20:00,
2013-03-08 13:35:00,52.6,21.2,30.06,North,359,5.0,5.0,29,0.00,,,0.00,457,Wunderground v.1.15,2013-03-08 18:35:00,
2013-03-08 13:45:00,52.5,19.4,30.06,NNW,347,9.0,9.0,27,0.00,,,0.00,674,Wunderground v.1.15,2013-03-08 18:45:00,
2013-03-08 13:50:00,52.3,20.9,30.06,North,4,9.0,9.0,29,0.00,,,0.00,588,Wunderground v.1.15,2013-03-08 18:50:00,
2013-03-08 14:00:00,52.5,21.1,30.06,NNW,336,6.0,6.0,29,0.00,,,0.00,642,Wunderground v.1.15,2013-03-08 19:00:00,
2013-03-08 14:10:00,53.2,20.9,30.06,NW,325,6.0,10.0,28,0.00,,,0.00,538,Wunderground v.1.15,2013-03-08 19:10:00,
2013-03-08 14:20:00,53.2,22.5,30.05,NNW,329,8.0,8.0,30,0.00,,,0.00,517,Wunderground v.1.15,2013-03-08 19:20:00,
2013-03-08 14:25:00,53.2,20.9,30.05,WNW,284,8.0,8.0,28,0.00,,,0.00,377,Wunderground v.1.15,2013-03-08 19:25:00,
2013-03-08 14:35:00,53.8,21.4,30.05,NW,306,5.0,9.0,28,0.00,,,0.00,324,Wunderground v.1.15,2013-03-08 19:35:00,
2013-03-08 14:40:00,54.1,22.5,30.05,NW,325,4.0,7.0,29,0.00,,,0.00,250,Wunderground v.1.15,2013-03-08 19:40:00,
2013-03-08 14:45:00,53.9,21.5,30.05,NNW,337,3.0,8.0,28,0.00,,,0.00,267,Wunderground v.1.15,2013-03-08 19:45:00,
2013-03-08 14:55:00,54.2,21.8,30.04,NNW,328,7.0,9.0,28,0.00,,,0.00,74,Wunderground v.1.15,2013-03-08 19:55:00,
2013-03-08 15:05:00,54.2,20.9,30.04,NW,306,6.0,10.0,27,0.00,,,0.00,160,Wunderground v.1.15,2013-03-08 20:05:00,
2013-03-08 15:10:00,53.9,21.5,30.04,NNW,336,6.0,6.0,28,0.00,,,0.00,220,Wunderground v.1.15,2013-03-08 20:10:00,
2013-03-08 15:20:00,54.7,21.3,30.05,NW,318,6.0,6.0,27,0.00,,,0.00,190,Wunderground v.1.15,2013-03-08 20:20:00,
2013-03-08 15:30:00,54.2,20.9,30.05,NW,322,5.0,5.0,27,0.00,,,0.00,164,Wunderground v.1.15,2013-03-08 20:30:00,
2013-03-08 15:40:00,55.1,22.5,30.05,NNE,17,4.0,10.0,28,0.00,,,0.00,310,Wunderground v.1.15,2013-03-08 20:40:00,
2013-03-08 15:50:00,54.8,22.3,30.05,NNE,18,4.0,4.0,28,0.00,,,0.00,370,Wunderground v.1.15,2013-03-08 20:50:00,
2013-03-08 15:55:00,55.0,22.4,30.05,NW,323,2.0,4.0,28,0.00,,,0.00,127,Wunderground v.1.15,2013-03-08 20:55:00,
2013-03-08 16:05:00,54.8,21.4,30.06,North,3,4.0,4.0,27,0.00,,,0.00,239,Wunderground v.1.15,2013-03-08 21:05:00,
2013-03-08 16:15:00,54.5,22.9,30.06,NNW,333,5.0,9.0,29,0.00,,,0.00,229,Wunderground v.1.15,2013-03-08 21:15:00,
2013-03-08 16:20:00,54.7,22.2,30.06,NW,305,3.0,3.0,28,0.00,,,0.00,143,Wunderground v.1.15,2013-03-08 21:20:00,
2013-03-08 16:30:00,54.8,23.1,30.06,NNW,337,3.0,13.0,29,0.00,,,0.00,236,Wunderground v.1.15,2013-03-08 21:30:00,
2013-03-08 16:35:00,54.5,22.0,30.06,North,353,4.0,13.0,28,0.00,,,0.00,197,Wunderground v.1.15,2013-03-08 21:35:00,
2013-03-08 16:45:00,54.5,22.0,30.06,North,352,2.0,3.0,28,0.00,,,0.00,199,Wunderground v.1.15,2013-03-08 21:45:00,
2013-03-08 16:50:00,54.4,21.9,30.06,NW,323,2.0,6.0,28,0.00,,,0.00,86,Wunderground v.1.15,2013-03-08 21:50:00,
2013-03-08 17:00:00,53.8,21.4,30.06,NNW,332,5.0,5.0,28,0.00,,,0.00,60,Wunderground v.1.15,2013-03-08 22:00:00,
2013-03-08 17:10:00,53.5,22.0,30.07,North,353,4.0,4.0,29,0.00,,,0.00,28,Wunderground v.1.15,2013-03-08 22:10:00,
2013-03-08 17:15:00,53.3,21.8,30.07,North,353,2.0,4.0,29,0.00,,,0.00,26,Wunderground v.1.15,2013-03-08 22:15:00,
2013-03-08 17:20:00,53.2,20.9,30.07,NNW,347,0.0,0.0,28,0.00,,,0.00,21,Wunderground v.1.15,2013-03-08 22:20:00,
2013-03-08 17:30:00,53.1,22.4,30.07,NNW,347,0.0,0.0,30,0.00,,,0.00,18,Wunderground v.1.15,2013-03-08 22:30:00,
2013-03-08 17:35:00,52.9,22.3,30.08,North,32767,-999.0,0.0,30,0.00,,,0.00,16,Wunderground v.1.15,2013-03-08 22:35:00,
2013-03-08 17:45:00,52.6,22.8,30.08,North,32767,-999.0,0.0,31,0.00,,,0.00,11,Wunderground v.1.15,2013-03-08 22:45:00,
2013-03-08 17:50:00,52.5,23.5,30.08,North,32767,-999.0,0.0,32,0.00,,,0.00,9,Wunderground v.1.15,2013-03-08 22:50:00,
2013-03-08 17:55:00,52.2,23.2,30.08,North,32767,-999.0,0.0,32,0.00,,,0.00,9,Wunderground v.1.15,2013-03-08 22:55:00,
2013-03-08 18:05:00,51.7,24.2,30.09,North,32767,-999.0,0.0,34,0.00,,,0.00,5,Wunderground v.1.15,2013-03-08 23:05:00,
2013-03-08 18:15:00,51.1,23.7,30.09,North,32767,-999.0,0.0,34,0.00,,,0.00,0,Wunderground v.1.15,2013-03-08 23:15:00,
2013-03-08 18:20:00,51.0,22.9,30.09,North,32767,-999.0,0.0,33,0.00,,,0.00,0,Wunderground v.1.15,2013-03-08 23:20:00,
2013-03-08 18:30:00,50.4,23.1,30.09,North,32767,-999.0,0.0,34,0.00,,,0.00,0,Wunderground v.1.15,2013-03-08 23:30:00,
2013-03-08 18:40:00,49.9,24.0,30.08,North,32767,-999.0,0.0,36,0.00,,,0.00,0,Wunderground v.1.15,2013-03-08 23:40:00,
2013-03-08 18:45:00,49.8,23.2,30.08,North,32767,-999.0,0.0,35,0.00,,,0.00,0,Wunderground v.1.15,2013-03-08 23:45:00,
2013-03-08 18:50:00,49.8,23.2,30.09,North,32767,-999.0,0.0,35,0.00,,,0.00,0,Wunderground v.1.15,2013-03-08 23:50:00,
2013-03-08 19:00:00,49.4,23.5,30.09,North,32767,-999.0,0.0,36,0.00,,,0.00,0,Wunderground v.1.15,2013-03-09 00:00:00,
2013-03-08 19:10:00,49.5,23.6,30.09,North,32767,-999.0,0.0,36,0.00,,,0.00,0,Wunderground v.1.15,2013-03-09 00:10:00,
2013-03-08 19:15:00,49.4,23.5,30.09,North,32767,-999.0,0.0,36,0.00,,,0.00,0,Wunderground v.1.15,2013-03-09 00:15:00,
2013-03-08 19:25:00,48.8,23.6,30.10,North,32767,-999.0,0.0,37,0.00,,,0.00,0,Wunderground v.1.15,2013-03-09 00:25:00,
2013-03-08 19:30:00,48.8,23.6,30.10,North,32767,-999.0,0.0,37,0.00,,,0.00,0,Wunderground v.1.15,2013-03-09 00:30:00,
2013-03-08 19:35:00,48.6,23.5,30.10,North,32767,-999.0,0.0,37,0.00,,,0.00,0,Wunderground v.1.15,2013-03-09 00:35:00,
2013-03-08 19:45:00,48.3,23.8,30.10,North,32767,-999.0,0.0,38,0.00,,,0.00,0,Wunderground v.1.15,2013-03-09 00:45:00,
2013-03-08 19:55:00,48.3,23.2,30.10,North,32767,-999.0,0.0,37,0.00,,,0.00,0,Wunderground v.1.15,2013-03-09 00:55:00,
2013-03-08 20:00:00,48.3,23.2,30.10,North,32767,-999.0,0.0,37,0.00,,,0.00,0,Wunderground v.1.15,2013-03-09 01:00:00,
2013-03-08 20:10:00,48.0,23.6,30.11,North,32767,-999.0,0.0,38,0.00,,,0.00,0,Wunderground v.1.15,2013-03-09 01:10:00,
2013-03-08 20:20:00,47.6,23.8,30.11,North,32767,-999.0,0.0,39,0.00,,,0.00,0,Wunderground v.1.15,2013-03-09 01:20:00,
2013-03-08 20:25:00,47.6,23.8,30.11,North,32767,-999.0,0.0,39,0.00,,,0.00,0,Wunderground v.1.15,2013-03-09 01:25:00,
2013-03-08 20:35:00,47.4,24.3,30.11,North,32767,-999.0,0.0,40,0.00,,,0.00,0,Wunderground v.1.15,2013-03-09 01:35:00,
2013-03-08 20:40:00,47.1,24.0,30.11,North,32767,-999.0,0.0,40,0.00,,,0.00,0,Wunderground v.1.15,2013-03-09 01:40:00,
2013-03-08 20:50:00,47.0,24.5,30.11,North,32767,-999.0,0.0,41,0.00,,,0.00,0,Wunderground v.1.15,2013-03-09 01:50:00,
2013-03-08 20:55:00,46.8,24.3,30.11,North,32767,-999.0,0.0,41,0.00,,,0.00,0,Wunderground v.1.15,2013-03-09 01:55:00,
2013-03-08 21:05:00,46.8,24.3,30.12,North,32767,-999.0,0.0,41,0.00,,,0.00,0,Wunderground v.1.15,2013-03-09 02:05:00,
2013-03-08 21:15:00,46.5,24.6,30.12,North,32767,-999.0,0.0,42,0.00,,,0.00,0,Wunderground v.1.15,2013-03-09 02:15:00,
2013-03-08 21:25:00,46.4,24.5,30.12,North,32767,-999.0,0.0,42,0.00,,,0.00,0,Wunderground v.1.15,2013-03-09 02:25:00,
2013-03-08 21:30:00,46.2,24.9,30.12,North,32767,-999.0,0.0,43,0.00,,,0.00,0,Wunderground v.1.15,2013-03-09 02:30:00,
2013-03-08 21:35:00,46.0,24.7,30.13,North,32767,-999.0,0.0,43,0.00,,,0.00,0,Wunderground v.1.15,2013-03-09 02:35:00,
2013-03-08 21:45:00,45.8,25.6,30.13,North,32767,-999.0,0.0,45,0.00,,,0.00,0,Wunderground v.1.15,2013-03-09 02:45:00,
2013-03-08 21:50:00,45.5,25.4,30.14,North,32767,-999.0,0.0,45,0.00,,,0.00,0,Wunderground v.1.15,2013-03-09 02:50:00,
2013-03-08 22:00:00,45.4,25.3,30.14,North,32767,-999.0,0.0,45,0.00,,,0.00,0,Wunderground v.1.15,2013-03-09 03:00:00,
2013-03-08 22:10:00,44.9,25.3,30.15,North,32767,-999.0,0.0,46,0.00,,,0.00,0,Wunderground v.1.15,2013-03-09 03:10:00,
2013-03-08 22:20:00,44.6,25.1,30.16,North,32767,-999.0,0.0,46,0.00,,,0.00,0,Wunderground v.1.15,2013-03-09 03:20:00,
2013-03-08 22:25:00,44.6,25.1,30.16,North,32767,-999.0,0.0,46,0.00,,,0.00,0,Wunderground v.1.15,2013-03-09 03:25:00,
2013-03-08 22:35:00,44.5,25.5,30.17,North,32767,-999.0,0.0,47,0.00,,,0.00,0,Wunderground v.1.15,2013-03-09 03:35:00,
2013-03-08 22:40:00,44.3,25.3,30.17,North,32767,-999.0,0.0,47,0.00,,,0.00,0,Wunderground v.1.15,2013-03-09 03:40:00,
2013-03-08 22:45:00,44.1,25.6,30.17,North,32767,-999.0,0.0,48,0.00,,,0.00,0,Wunderground v.1.15,2013-03-09 03:45:00,
2013-03-08 22:55:00,43.8,25.4,30.17,North,32767,-999.0,0.0,48,0.00,,,0.00,0,Wunderground v.1.15,2013-03-09 03:55:00,
2013-03-08 23:00:00,43.6,25.2,30.17,North,32767,-999.0,0.0,48,0.00,,,0.00,0,Wunderground v.1.15,2013-03-09 04:00:00,
2013-03-08 23:10:00,43.3,25.4,30.17,North,32767,-999.0,0.0,49,0.00,,,0.00,0,Wunderground v.1.15,2013-03-09 04:10:00,
2013-03-08 23:15:00,43.2,25.3,30.17,North,32767,-999.0,0.0,49,0.00,,,0.00,0,Wunderground v.1.15,2013-03-09 04:15:00,
2013-03-08 23:25:00,43.1,25.7,30.17,North,32767,-999.0,0.0,50,0.00,,,0.00,0,Wunderground v.1.15,2013-03-09 04:25:00,
2013-03-08 23:35:00,42.9,25.5,30.17,North,32767,-999.0,0.0,50,0.00,,,0.00,0,Wunderground v.1.15,2013-03-09 04:35:00,
2013-03-08 23:45:00,42.8,25.4,30.17,North,32767,-999.0,0.0,50,0.00,,,0.00,0,Wunderground v.1.15,2013-03-09 04:45:00,
2013-03-08 23:50:00,42.6,25.2,30.17,North,32767,-999.0,0.0,50,0.00,,,0.00,0,Wunderground v.1.15,2013-03-09 04:50:00,